GEFSMW_con_cape1000_096.txt.gz
Probability
16 19 16 13 16 16 16 13 19 16 13 10 6 3 6 3 0 0 6 3 3 3 0 0 0 0 0 0 0 0 0 0 0 0 0 0 0 0 0 0 3 6 6
10 10 13 10 10 13 13 10 13 16 13 10 6 0 0 0 0 3 3 3 3 0 0 0 0 0 0 0 0 0 0 0 0 0 0 0 0 0 0 0 0 0 0
10 13 13 10 10 10 10 10 6 10 6 3 0 0 0 0 0 0 0 3 3 3 0 0 0 0 0 0 0 0 0 0 0 0 0 0 0 0 0 0 0 0 0
10 6 10 10 10 10 10 6 6 6 0 0 0 0 0 0 0 0 0 0 3 3 0 0 0 0 0 0 0 0 0 0 0 0 0 0 0 0 0 0 0 0 0
13 6 10 10 10 10 10 6 3 3 3 0 0 0 0 0 0 0 0 0 3 3 3 0 0 0 0 0 0 0 0 0 0 0 0 0 0 0 0 0 0 0 0
6 6 3 6 6 6 6 10 6 3 3 0 0 0 0 0 0 0 0 0 0 0 0 3 0 0 0 0 0 0 0 0 0 0 0 0 0 0 0 0 0 0 0
6 3 3 6 6 6 16 13 6 3 3 3 0 0 0 0 0 0 0 0 0 0 0 0 0 0 0 0 0 0 0 0 0 0 0 0 0 0 0 0 0 0 0
3 0 3 6 10 6 13 13 13 6 3 3 0 0 0 0 0 0 0 0 0 0 0 0 0 0 0 0 0 0 0 0 0 0 0 0 0 0 0 0 0 0 0
3 0 0 10 10 16 16 16 16 13 6 0 0 0 0 0 0 0 0 0 0 0 0 0 0 0 0 0 0 0 0 0 0 0 0 0 0 0 0 0 0 0 0
6 6 6 10 13 13 13 16 16 16 13 10 0 0 0 0 0 0 0 0 0 0 0 0 0 0 0 0 0 0 0 0 0 0 0 0 0 0 0 0 0 0 0
6 3 6 10 13 13 13 13 16 16 13 10 3 0 0 3 3 3 3 3 3 0 0 0 0 0 0 0 0 0 0 0 0 0 0 0 0 0 0 0 0 0 0
3 0 3 10 13 13 13 13 13 13 13 10 3 0 3 3 3 3 3 3 3 0 3 3 0 0 0 0 0 0 0 0 0 0 0 0 0 0 0 0 0 0 0
3 0 3 6 6 13 16 16 13 13 10 10 10 3 3 0 0 0 0 3 3 0 0 0 0 0 0 0 0 0 0 0 0 0 0 0 0 0 0 0 0 0 0
3 0 6 6 6 6 13 23 19 19 16 16 6 3 0 0 0 0 0 0 0 0 0 0 0 0 0 0 0 0 0 0 0 0 0 0 0 0 0 0 0 0 0
3 0 6 3 3 3 3 13 16 16 16 13 13 13 3 0 0 0 0 0 0 0 0 0 0 0 0 0 0 0 0 0 0 0 0 0 0 0 0 0 0 0 0
3 0 0 3 3 3 3 6 10 10 10 10 13 6 0 0 0 0 0 0 0 0 0 0 0 0 0 0 0 0 0 0 0 0 0 0 0 0 0 0 0 0 0
3 0 0 3 3 3 6 6 6 3 3 3 0 0 0 0 0 0 0 0 0 0 0 0 0 0 0 0 0 0 0 0 0 0 0 0 0 0 0 0 0 0 0
0 3 0 0 0 0 0 0 0 0 0 0 0 0 0 0 0 0 0 0 0 0 3 0 0 3 0 0 0 0 0 0 0 0 0 0 0 0 0 0 0 0 0
3 0 0 0 0 0 0 0 0 0 0 0 0 0 0 0 0 0 0 0 0 3 0 0 0 0 0 0 0 0 0 0 0 0 0 0 0 0 0 0 0 0 0
0 0 0 0 0 0 0 0 0 0 0 0 0 0 0 0 0 0 0 0 0 0 0 0 0 0 0 0 0 0 0 0 0 0 0 0 0 0 0 0 0 0 0
0 0 0 0 0 0 0 0 0 0 0 0 0 0 0 0 0 0 0 0 0 0 0 0 0 0 0 0 0 0 0 0 0 0 0 0 0 0 0 0 0 0 0
0 0 0 0 0 0 0 0 0 0 0 0 0 0 0 0 0 0 0 0 0 0 0 0 0 0 0 0 0 0 0 0 0 0 0 0 0 0 0 0 0 0 0
0 0 0 0 0 0 0 0 0 0 0 0 0 0 0 0 0 0 0 0 0 0 0 0 0 0 0 0 0 0 0 0 0 0 0 0 0 0 0 0 0 0 0
0 0 0 0 0 0 0 0 0 0 0 0 0 0 0 0 0 0 0 0 0 0 0 0 0 0 0 0 0 0 0 0 0 0 0 0 0 0 0 0 0 0 0
0 0 0 0 0 0 0 0 0 0 0 0 0 0 0 0 0 0 0 0 0 0 0 0 0 0 0 0 0 0 0 0 0 0 0 0 0 0 0 0 0 0 0
0 0 0 0 0 0 0 0 0 0 0 0 0 0 0 0 0 0 0 0 0 0 0 0 0 0 0 0 0 0 0 0 0 0 0 0 0 0 0 0 0 0 0

GEFSMW_con_cape1000_102.txt.gz
Probability
61 58 52 52 52 48 55 61 65 65 68 68 61 61 45 42 35 32 29 29 26 26 23 10 13 16 23 16 6 10 6 6 6 3 3 3 6 6 13 10 16 23 19
48 58 52 48 48 55 55 65 68 65 65 68 71 58 45 42 32 29 29 26 16 13 10 16 16 16 23 19 16 16 10 6 3 3 3 0 3 6 3 6 16 19 19
48 55 48 48 45 45 45 45 58 61 58 61 48 42 42 35 23 29 32 26 16 16 6 10 13 19 19 19 16 16 6 3 0 0 3 3 0 6 0 3 3 6 10
48 52 48 42 42 39 35 48 58 58 61 48 35 32 32 26 26 29 23 23 16 19 10 10 13 19 13 19 6 6 3 0 0 0 3 0 6 3 0 3 3 6 6
39 42 42 39 39 32 29 45 48 55 48 42 35 35 32 29 26 26 29 23 16 19 10 16 13 16 13 6 3 6 3 0 0 0 0 0 0 0 0 0 0 0 0
32 39 39 35 42 32 29 35 42 42 42 32 35 32 29 29 13 23 29 26 19 16 16 16 16 13 3 3 3 6 3 3 0 0 0 0 0 0 0 0 0 0 0
39 42 39 39 32 26 26 35 39 42 39 32 32 32 29 26 32 26 26 23 10 13 16 10 16 16 13 6 6 6 3 3 6 6 0 0 0 0 0 0 0 0 0
39 32 35 39 29 23 26 29 39 39 29 32 35 32 39 32 23 29 26 23 13 10 13 13 19 19 16 3 10 6 6 6 6 6 6 3 0 0 0 0 0 3 3
29 32 39 39 32 35 32 29 35 39 39 39 42 39 35 29 19 26 26 16 19 13 13 13 16 16 16 16 19 6 6 6 6 6 6 6 3 3 0 0 0 0 3
29 26 29 35 35 32 26 32 32 42 45 39 42 35 39 42 35 32 29 23 26 19 19 16 16 16 16 19 19 19 13 13 10 10 6 10 3 3 3 3 3 0 0
29 35 32 39 35 29 35 35 45 55 45 42 42 39 32 32 32 32 32 32 26 26 29 26 23 16 23 32 32 23 23 19 16 16 6 6 6 10 6 3 3 3 3
39 35 35 42 39 35 35 42 45 48 55 55 45 48 42 42 35 26 32 35 39 32 32 32 32 26 26 35 32 29 29 32 26 23 19 13 6 10 6 6 3 3 3
48 48 42 45 42 52 45 48 52 52 55 58 55 52 48 52 55 39 39 45 45 39 32 39 42 32 32 42 39 39 42 42 32 32 32 29 26 26 13 16 6 3 3
71 65 55 52 52 52 58 55 48 55 58 58 58 55 58 55 48 45 42 45 52 42 48 42 35 35 29 32 39 42 48 48 42 39 26 23 26 26 29 23 26 19 16
65 65 58 61 65 68 71 68 65 61 61 68 65 58 58 48 48 45 42 42 45 35 39 35 32 29 26 26 32 45 39 45 48 39 35 26 10 10 6 3 16 16 16
71 68 65 55 61 68 68 68 71 71 74 65 61 65 61 61 61 48 45 39 42 39 42 39 29 26 10 0 0 3 26 35 35 32 32 19 6 0 0 0 0 0 0
68 65 65 65 68 68 65 61 61 58 61 68 61 58 58 55 48 39 35 42 45 39 35 32 26 19 13 0 0 0 0 16 23 23 19 10 3 0 3 0 0 0 0
61 61 65 61 61 61 61 58 58 58 58 55 48 52 52 45 42 39 39 35 32 32 29 26 23 19 6 0 0 0 0 3 6 6 13 13 13 0 0 3 3 3 3
55 58 58 55 58 55 55 55 52 48 52 48 45 45 42 42 32 23 23 23 23 19 16 13 13 6 6 0 0 0 6 10 6 6 3 3 3 0 0 0 3 3 3
48 45 32 35 42 45 48 42 42 42 39 39 29 29 26 23 16 13 6 13 10 3 3 0 0 3 3 0 0 0 0 3 3 3 3 0 0 0 0 0 3 3 0
35 32 32 32 35 29 35 35 32 26 26 26 19 19 19 16 10 6 6 6 3 3 3 0 0 3 0 0 0 0 0 0 0 0 0 0 0 0 0 0 0 0 0
23 19 19 19 19 19 19 19 16 13 10 6 6 6 6 3 3 6 6 3 3 3 3 3 3 3 0 0 0 0 0 0 0 0 0 0 0 0 0 0 0 0 0
13 13 16 16 19 19 16 6 6 6 6 6 3 3 0 3 0 0 3 3 3 0 0 3 0 0 3 0 0 0 0 0 0 0 0 0 0 0 0 0 0 0 0
10 10 10 3 0 0 0 3 3 3 3 3 3 3 3 3 0 0 0 0 0 0 0 0 0 0 0 0 0 0 0 0 0 0 0 0 0 0 0 0 0 0 0
0 0 0 0 0 0 0 0 0 0 0 0 0 0 0 0 0 0 0 0 0 0 0 0 0 0 0 0 0 0 0 0 0 0 0 0 0 0 0 0 0 0 0
0 0 0 0 0 0 0 0 0 0 0 0 0 0 0 0 0 0 0 0 0 0 0 0 0 0 0 0 0 0 0 0 0 0 0 0 0 0 0 0 0 0 0

GEFSMW_con_cape1000_108.txt.gz
Probability
65 61 58 61 58 68 68 52 52 52 48 45 42 45 61 61 52 52 45 45 39 32 39 39 42 32 39 32 16 19 26 29 26 16 19 10 6 32 39 35 39 32 35
65 68 58 65 61 52 61 55 52 48 48 48 45 48 58 55 48 52 42 35 32 35 26 39 35 39 35 32 26 35 35 32 19 16 13 10 6 26 3 35 35 23 32
65 68 58 61 58 52 61 55 55 65 58 48 52 45 55 55 48 42 42 35 32 29 32 26 23 29 32 39 29 35 19 29 32 29 10 6 16 23 19 19 23 32 29
68 68 61 55 55 48 55 65 65 61 65 52 52 45 42 42 48 42 48 32 32 26 26 29 23 19 26 48 32 23 19 13 10 16 16 6 13 10 13 13 13 16 26
65 55 55 48 45 48 45 55 68 61 58 55 55 58 52 48 45 45 45 39 35 29 26 29 26 26 35 39 26 35 26 26 26 23 19 13 6 3 10 10 10 10 13
61 55 52 52 55 52 45 58 61 65 55 55 55 55 52 48 39 42 45 45 48 32 26 26 29 32 39 32 23 23 19 23 23 26 23 13 6 10 10 6 10 13 13
61 55 52 55 48 48 48 61 55 55 48 55 48 58 55 55 42 39 39 39 29 29 35 26 35 35 35 29 29 26 16 13 16 13 19 23 19 10 10 3 3 6 6
61 61 55 55 52 48 55 55 48 48 48 48 48 52 55 45 39 48 32 35 32 29 42 42 32 32 32 26 35 23 19 16 19 10 16 19 13 13 6 10 3 0 0
68 55 52 55 52 48 48 52 58 55 52 42 45 58 55 48 39 48 39 35 35 23 35 29 29 29 29 32 32 35 29 26 23 13 16 13 16 13 6 6 6 3 0
61 58 52 52 55 45 52 48 55 61 55 45 35 29 52 55 48 42 39 35 35 35 32 23 32 32 35 32 32 29 29 32 26 35 23 19 10 16 16 10 13 13 6
45 65 58 48 48 42 45 45 48 55 52 45 39 45 45 52 52 45 35 42 39 45 45 35 26 29 29 29 32 35 32 29 29 23 26 19 16 19 19 16 16 10 10
45 61 65 55 52 45 45 48 48 45 52 52 55 58 58 58 52 45 52 52 45 42 42 39 45 35 26 35 39 26 29 35 35 39 39 29 23 29 26 23 13 16 23
65 61 65 65 61 52 52 45 52 52 48 55 58 65 58 55 58 58 68 71 61 52 48 45 52 52 45 52 42 42 39 39 39 39 39 35 29 42 39 42 13 16 3
84 74 74 71 68 65 61 48 42 55 55 55 61 61 61 55 52 61 65 65 55 58 55 52 55 52 45 39 48 58 48 39 35 32 42 42 39 39 32 32 32 19 19
87 90 84 81 81 74 68 58 58 55 61 68 61 71 65 61 58 58 55 52 58 45 55 48 52 45 29 23 32 45 39 45 45 39 39 29 16 6 10 3 10 6 10
90 87 84 84 84 81 68 68 68 65 71 65 65 68 61 55 58 55 52 55 48 48 52 45 39 35 6 0 0 10 35 35 32 32 32 23 13 3 0 0 0 0 0
87 84 81 84 81 77 74 71 71 68 65 61 58 61 61 58 52 52 45 45 48 45 39 35 29 16 6 0 0 0 13 19 19 19 19 13 0 0 0 3 0 0 0
77 81 71 74 74 71 71 68 61 61 61 58 58 61 55 55 45 39 39 39 39 39 35 26 19 13 0 0 0 0 3 6 3 3 3 3 3 0 0 0 0 0 0
74 74 74 71 71 74 68 61 58 58 58 58 58 55 48 45 45 39 42 42 35 29 26 16 3 3 0 0 0 0 6 6 3 3 0 0 0 0 0 0 0 0 0
65 65 65 68 68 65 68 65 55 52 48 48 48 45 45 35 35 35 32 29 16 16 0 0 0 0 0 0 0 0 0 3 3 3 0 0 0 0 0 0 0 0 0
55 55 55 55 52 52 55 52 42 42 45 45 39 39 32 29 26 19 16 13 6 0 0 0 0 0 0 0 0 0 0 0 0 0 0 0 0 0 0 0 0 0 0
48 42 42 42 35 39 35 35 35 32 26 23 16 13 13 6 10 10 10 3 0 0 0 0 0 0 0 0 0 0 0 0 0 0 0 0 0 0 0 0 0 0 0
23 26 29 29 29 32 32 26 23 23 13 13 13 10 6 6 10 6 3 3 3 3 3 0 0 0 0 0 0 0 0 0 0 0 0 0 0 0 0 0 0 0 0
16 19 19 16 16 23 19 19 13 10 6 3 0 0 0 0 0 0 0 0 0 0 3 0 0 0 0 0 0 0 0 0 0 0 0 0 0 0 0 0 0 0 0
10 10 6 3 3 3 3 3 3 3 3 3 0 0 0 0 0 0 0 0 0 0 0 0 0 0 0 0 0 0 0 0 0 0 0 0 0 0 0 0 0 0 0
3 3 3 0 0 0 0 0 0 3 3 3 3 0 0 0 0 0 0 0 0 0 0 0 0 0 0 0 0 0 0 0 0 0 0 0 0 0 0 0 0 0 0

GEFSMW_con_cape1000_114.txt.gz
Probability
55 45 42 48 45 39 26 26 23 23 23 19 19 19 23 19 19 16 6 10 10 6 6 3 3 6 0 0 0 0 0 0 0 0 0 0 0 0 0 0 0 3 3
55 48 48 42 48 35 29 19 23 23 23 19 19 19 19 16 16 13 6 13 10 10 6 3 3 3 3 0 0 0 0 0 0 0 0 0 0 0 3 0 0 3 3
48 42 52 42 45 32 29 32 26 26 23 23 16 16 19 13 16 13 13 13 13 10 3 3 3 0 0 0 0 0 0 0 0 0 0 0 0 0 0 0 0 0 3
35 39 39 45 35 29 32 26 23 23 23 26 19 13 19 13 10 13 16 10 13 13 6 0 3 0 0 0 0 0 0 0 0 0 0 0 0 0 0 0 0 0 0
26 32 39 35 35 32 29 23 16 19 19 19 13 10 10 6 6 3 13 13 13 13 6 0 0 0 0 0 0 0 0 0 0 0 0 0 0 0 0 0 0 0 0
26 29 29 23 29 32 26 19 19 16 16 19 10 3 3 0 0 3 6 10 10 3 6 3 0 0 0 0 0 0 0 0 0 0 0 0 0 0 0 0 0 0 0
19 23 19 19 29 29 26 19 23 19 16 16 10 6 3 0 0 0 3 3 3 0 3 3 0 0 0 0 0 0 0 0 0 0 0 0 0 0 0 0 0 0 0
19 19 19 16 19 26 19 16 13 16 13 13 13 10 3 0 0 0 0 3 0 0 0 0 0 0 0 0 0 0 0 0 0 0 0 0 0 0 0 0 0 0 0
19 16 19 16 19 19 13 13 13 16 13 13 10 10 10 3 0 0 0 0 0 0 0 0 0 0 0 0 0 0 0 0 0 0 0 0 0 0 0 0 0 0 0
26 19 16 16 16 16 13 13 13 16 16 13 13 13 10 6 3 0 0 0 0 0 0 0 0 0 0 0 0 0 0 0 0 0 0 0 0 0 0 0 0 0 0
26 23 19 16 13 19 13 13 13 16 16 16 13 13 13 10 3 0 0 0 0 0 0 0 3 0 0 0 0 0 0 0 0 0 0 0 0 0 0 0 0 0 0
13 19 16 19 13 16 13 13 13 16 16 19 16 16 13 13 10 6 3 0 0 0 0 3 3 3 0 0 3 3 3 3 3 0 0 0 0 0 0 0 0 0 0
10 10 19 19 23 13 13 13 16 13 13 16 19 19 19 16 19 3 3 3 3 3 3 3 3 6 6 3 6 3 3 3 3 3 3 0 0 0 0 0 0 0 0
13 10 10 10 16 13 13 13 13 10 10 13 16 16 16 16 16 6 3 3 3 3 3 3 3 3 3 3 3 3 3 3 3 0 0 0 0 0 0 0 0 0 0
23 13 6 10 10 10 13 13 16 10 13 13 13 10 10 13 10 3 3 3 3 3 3 3 3 3 3 3 3 3 3 3 0 0 0 3 0 0 0 0 0 0 0
19 19 16 10 13 10 10 13 13 13 13 16 10 10 10 10 6 6 3 3 3 3 3 3 3 3 3 3 3 3 3 3 0 0 0 0 0 0 0 0 0 0 0
19 26 23 19 13 13 10 10 13 13 10 13 13 10 10 10 6 6 6 6 3 3 3 3 3 3 3 0 0 0 0 0 0 0 0 0 0 0 0 0 0 0 0
26 29 19 16 13 10 10 13 16 16 13 13 13 10 10 13 6 6 6 3 3 3 0 0 0 0 0 0 0 0 0 0 0 0 0 0 0 0 0 0 0 0 0
26 26 23 23 19 13 10 3 10 16 10 10 13 10 10 10 10 6 6 0 0 0 0 0 0 0 0 0 0 0 0 0 0 0 0 0 0 0 0 0 0 0 0
19 23 19 26 19 13 6 10 10 3 6 3 3 0 3 3 6 6 3 0 0 0 0 0 0 0 0 0 0 0 0 0 0 0 0 0 0 0 0 0 0 0 0
16 13 10 10 16 16 10 10 6 6 6 3 0 0 3 6 6 3 0 0 0 0 0 0 0 0 0 0 0 0 0 0 0 0 0 0 0 0 0 0 0 0 0
10 13 10 16 10 10 10 10 6 3 6 3 6 3 3 6 3 0 0 0 0 0 0 0 0 0 0 0 0 0 0 0 0 0 0 0 0 0 0 0 0 0 0
3 6 6 6 6 3 3 0 0 0 6 0 0 0 0 0 0 0 0 0 0 0 0 0 0 0 0 0 0 0 0 0 0 0 0 0 0 0 0 0 0 0 0
3 3 3 3 0 0 0 0 0 3 0 0 0 0 0 0 0 0 0 0 0 0 0 0 0 0 0 0 0 0 0 0 0 0 0 0 0 0 0 0 0 0 0
3 3 0 0 0 0 0 0 0 0 0 0 0 0 0 0 0 0 0 0 0 0 0 0 0 0 0 0 0 0 0 0 0 0 0 0 0 0 0 0 0 0 0
0 0 0 0 0 0 0 0 0 0 0 0 0 0 0 0 0 0 0 0 0 0 0 0 0 0 0 0 0 0 0 0 0 0 0 0 0 0 0 0 0 0 0

GEFSMW_con_cape1000_120.txt.gz
Probability
29 23 29 29 26 19 16 16 13 6 6 13 13 13 10 13 10 10 10 10 10 10 6 3 0 0 0 0 0 0 0 0 0 0 0 0 0 0 0 0 0 6 10
32 32 29 26 19 13 13 13 13 13 3 10 13 13 10 10 10 10 10 10 10 10 3 3 0 0 0 0 0 0 0 0 0 0 0 0 0 0 0 0 0 0 3
32 32 26 19 19 10 13 13 10 10 6 10 10 6 3 3 6 6 6 6 10 10 6 3 3 0 0 0 0 0 0 0 0 0 0 0 0 0 0 0 0 0 3
35 32 26 29 13 13 13 13 10 6 6 10 10 10 10 10 6 6 10 6 6 6 3 3 0 0 0 0 0 0 0 0 0 0 0 0 0 0 0 0 0 0 0
29 26 26 26 19 13 13 13 6 6 6 6 6 10 10 6 6 3 10 10 3 3 0 3 3 0 0 0 0 0 0 0 0 0 0 0 0 0 0 0 0 0 0
23 13 19 23 32 19 13 6 13 10 10 6 6 3 3 0 0 3 6 6 6 0 0 0 3 0 0 0 0 0 0 0 0 0 0 0 0 0 0 0 0 0 0
19 19 16 23 29 23 13 13 10 10 6 6 6 3 0 0 0 0 3 6 6 3 6 0 3 0 0 0 0 0 0 0 0 0 0 0 0 0 0 0 0 0 0
13 16 19 23 19 19 10 13 13 10 6 6 6 0 0 0 0 0 3 3 3 6 3 3 3 0 0 0 0 0 0 0 0 0 0 0 0 0 0 0 0 0 0
16 13 13 10 13 13 6 10 6 6 6 6 3 3 0 0 0 0 0 0 3 0 0 0 0 0 0 0 0 0 0 0 0 0 0 0 0 0 0 0 0 0 0
16 13 13 6 10 10 3 3 10 6 6 6 6 10 6 6 0 0 0 0 0 0 0 0 0 0 0 0 0 0 0 0 0 0 0 0 0 0 0 0 0 0 0
10 10 10 6 3 6 6 3 6 10 6 6 6 6 10 10 6 0 0 0 0 0 0 0 0 0 0 0 0 0 0 0 0 0 0 0 0 0 0 0 0 0 0
10 3 6 6 6 6 6 6 6 10 10 10 6 10 10 10 10 6 3 0 0 0 0 0 0 0 0 0 0 0 0 0 0 0 0 0 0 0 0 0 0 0 0
6 3 3 6 6 3 10 6 6 10 6 6 6 6 10 10 10 6 3 3 0 0 0 0 0 0 0 0 0 0 0 0 0 0 0 0 0 0 0 0 0 0 0
3 0 3 6 6 3 6 10 6 10 6 6 6 6 6 10 10 10 3 3 3 3 0 0 0 0 0 3 0 0 0 0 0 0 0 0 0 0 0 0 0 0 0
3 0 0 3 6 3 6 10 10 6 10 10 10 10 3 6 10 6 6 3 3 3 3 0 3 3 3 3 3 0 0 0 0 0 0 0 0 0 0 0 0 0 0
6 3 3 0 0 0 6 6 6 6 6 6 6 6 6 6 6 3 3 6 3 3 3 3 3 3 3 3 0 0 0 0 0 0 0 0 0 0 0 0 0 0 0
6 3 0 3 3 0 3 6 6 6 6 6 6 6 6 6 3 3 3 3 3 3 3 3 3 3 3 0 0 0 0 3 3 0 0 0 0 0 0 0 0 0 0
0 3 3 3 0 0 0 3 3 6 6 3 6 6 6 6 3 3 3 3 3 3 3 3 3 3 0 0 0 0 0 0 0 0 0 0 0 0 0 0 0 0 0
0 3 0 0 0 0 0 3 3 3 3 3 6 6 6 3 3 3 3 0 0 0 0 0 0 0 0 0 0 0 0 0 0 0 0 0 0 0 0 0 0 0 0
0 0 0 0 0 0 0 0 0 0 0 0 3 3 3 3 3 3 0 0 0 0 0 0 0 0 0 0 0 0 0 0 0 0 0 0 0 0 0 0 0 0 0
0 0 0 0 0 0 0 0 0 0 0 0 3 3 0 0 0 0 0 0 0 0 0 0 0 0 0 0 0 0 0 0 0 0 0 0 0 0 0 0 0 0 0
0 0 0 0 0 0 0 0 0 0 0 0 0 0 0 0 0 0 0 0 0 0 0 0 0 0 0 0 0 0 0 0 0 0 0 0 0 0 0 0 0 0 0
0 0 3 0 0 0 0 0 0 0 0 0 0 0 0 0 0 0 0 0 0 0 0 0 0 0 0 0 0 0 0 0 0 0 0 0 0 0 0 0 0 0 0
0 0 3 3 0 0 0 0 0 0 0 0 0 0 0 0 0 0 0 0 0 0 0 0 0 0 0 0 0 0 0 0 0 0 0 0 0 0 0 0 0 0 0
0 0 3 3 3 0 0 0 0 0 0 0 0 0 0 0 0 0 0 0 0 0 0 0 0 0 0 0 0 0 0 0 0 0 0 0 0 0 0 0 0 0 0
0 0 3 3 0 0 0 0 0 0 0 0 0 0 0 0 0 0 0 0 0 0 0 0 0 0 0 0 0 0 0 0 0 0 0 0 0 0 0 0 0 0 0

GEFSMW_con_cape1000_126.txt.gz
Probability
87 81 84 84 84 81 77 84 77 77 81 77 74 61 65 68 68 68 68 68 65 71 71 52 74 71 48 45 39 39 32 29 23 16 10 3 6 10 29 13 16 10 10
81 81 81 74 81 74 74 77 77 77 81 77 71 74 58 55 58 58 65 61 55 61 52 61 61 61 58 42 35 45 26 19 19 16 26 13 16 10 0 13 16 6 10
77 74 74 74 74 71 68 65 74 71 74 68 68 61 55 52 48 58 58 58 52 48 52 52 61 61 45 42 55 48 23 13 16 19 13 16 6 13 0 6 3 10 6
74 74 71 68 77 74 68 74 74 74 68 61 65 45 35 29 39 48 48 48 48 48 48 48 55 55 42 45 29 19 23 16 16 19 19 10 3 3 10 10 6 6 10
71 74 74 68 71 68 61 68 77 81 65 55 58 58 39 29 35 42 52 61 48 45 39 45 48 48 48 42 32 39 26 19 19 19 23 10 10 0 0 6 6 3 3
74 81 77 71 71 65 61 61 74 77 65 48 42 52 48 42 32 39 45 55 55 42 35 42 42 45 42 52 52 45 26 13 13 16 13 10 6 16 13 13 6 6 3
68 77 68 65 58 52 58 58 61 65 58 45 35 48 45 45 45 42 48 45 32 35 42 35 39 39 39 42 39 45 19 13 13 23 19 16 10 6 10 10 3 6 3
61 61 55 52 48 48 48 48 58 58 55 45 45 42 42 45 42 52 45 39 29 32 39 42 42 35 32 26 35 16 19 26 23 6 10 10 10 10 6 6 10 13 6
61 65 55 48 48 52 48 45 55 45 48 48 58 39 39 39 35 42 42 35 39 23 35 26 26 29 29 29 32 29 26 19 19 10 10 13 10 10 6 10 10 6 0
65 61 58 55 52 52 52 48 45 45 45 45 45 29 35 39 35 39 39 23 29 29 32 26 19 23 29 26 32 29 26 26 23 29 13 13 6 6 3 10 6 6 3
58 68 58 55 52 42 35 32 39 42 42 39 32 26 29 29 26 35 26 29 29 26 29 29 26 23 16 23 35 23 19 16 16 19 10 10 10 10 3 3 6 6 6
58 65 68 58 48 39 26 29 29 35 35 29 32 29 35 35 23 19 29 32 35 29 29 23 19 19 13 16 16 16 13 19 16 13 13 16 13 6 6 13 6 3 3
65 68 58 58 48 45 39 32 32 29 35 26 29 29 29 19 16 23 26 29 32 32 26 29 19 23 16 16 10 13 19 19 16 16 13 6 6 10 6 10 10 10 3
77 71 55 55 48 42 42 32 32 23 23 23 26 26 32 26 23 26 26 26 26 23 23 19 16 13 16 13 13 6 10 13 6 6 6 6 6 10 6 6 6 6 6
77 77 55 52 52 42 39 29 29 32 26 29 26 32 35 32 32 26 26 29 26 19 23 19 10 10 10 6 13 13 10 10 6 6 6 3 3 3 3 3 13 10 19
68 61 55 55 48 42 35 32 29 29 32 32 35 35 35 32 29 29 29 26 23 23 16 16 13 10 6 6 3 10 13 10 6 3 3 3 3 0 0 0 0 0 3
55 58 52 52 58 48 45 35 35 35 35 39 39 32 23 29 29 19 23 26 26 23 23 13 10 6 6 3 0 0 6 6 6 10 10 3 0 3 3 0 0 0 0
52 55 52 55 55 48 42 45 35 39 39 35 32 29 32 23 26 19 23 26 26 23 19 19 13 16 3 0 0 0 0 3 3 0 3 0 0 0 0 0 0 0 0
52 55 52 45 48 58 58 45 35 39 32 32 32 29 26 26 26 26 23 26 23 16 13 10 10 13 0 0 0 0 0 0 0 0 0 0 0 0 0 0 0 0 0
35 42 39 45 48 45 48 48 42 42 29 35 29 29 29 26 26 23 26 23 23 19 10 6 10 0 0 0 0 0 3 3 0 0 0 0 0 0 0 0 0 0 0
32 26 32 35 42 39 45 39 32 32 26 19 19 26 26 23 23 23 23 19 19 16 10 3 0 0 0 0 0 0 3 3 0 0 0 0 0 0 0 0 0 0 0
32 29 29 26 26 32 32 29 32 23 19 16 13 19 19 13 10 16 19 16 13 6 0 0 0 0 0 0 0 0 0 0 0 0 0 0 0 0 0 0 0 0 0
19 19 26 16 19 23 26 26 26 19 19 19 13 13 13 13 16 16 13 10 3 0 0 0 0 0 0 0 0 0 0 0 0 0 0 0 0 0 0 0 0 0 0
19 13 16 13 13 16 19 19 19 16 16 10 10 10 10 13 16 10 6 6 3 0 0 0 0 0 0 0 0 0 0 0 0 0 0 0 0 0 0 0 0 0 0
16 13 19 16 10 10 10 10 13 13 10 10 10 6 6 3 3 0 0 0 0 0 0 0 0 0 0 0 0 0 0 0 0 0 0 0 0 0 0 0 0 0 0
6 13 13 6 6 6 6 10 6 6 3 0 0 0 0 0 0 0 0 0 0 0 0 0 0 0 0 0 0 0 0 0 0 0 0 0 0 0 0 0 0 0 0